Date String (YYYY-MM-DD hh:mm:ss) UTC,Instrument flags,Ambient pressure (hPa),Sample flow (lpm),Bypass flow (lpm),Sample temperature (°C),Ambient temperature (°C),ASC tube jacket temperature (°C),LED temperature (°C),Box temperature (°C),Sample RH (%),Span deviation,Mass concentration (μg/m³),Mass concentration (μg/m³),Mass concentration (μg/m³)
DateTimeUTC,F1_M11,P_M11,Q1_M11,Q2_M11,T1_M11,T2_M11,T3_M11,T4_M11,T5_M11,U1_M11,ZSPAN_M11,X2_M11,X0_M11,X1_M11
2022-06-10 01:00:00,,0824.7,5.01,0.00,28.9,27.9,00.0,37.7,30.9,20.2,0000.0,0006.01,0022.39,0003.18
2022-06-10 01:01:00,,0824.7,5.00,0.00,29.0,28.1,00.0,37.7,31.0,20.5,0000.0,0006.06,0021.55,0003.18
2022-06-10 01:02:00,,0824.6,4.99,0.00,29.0,27.9,00.0,37.7,31.0,20.6,0000.0,0006.03,0021.82,0003.18
2022-06-10 01:03:00,,0824.7,4.99,0.00,28.9,27.2,00.0,37.7,30.8,20.2,0000.0,0006.04,0022.32,0003.19
2022-06-10 01:04:00,,0824.6,5.01,0.00,28.9,26.8,00.0,37.6,30.6,20.3,0000.0,0006.03,0021.52,0003.20
2022-06-10 01:05:00,,0824.7,5.00,0.00,28.8,26.8,00.0,37.6,30.6,19.9,0000.0,0006.02,0021.03,0003.21
2022-06-10 01:06:00,,0824.6,4.99,0.00,28.8,26.9,00.0,37.6,30.5,20.6,0000.0,0006.07,0021.51,0003.20
2022-06-10 01:07:00,,0824.6,5.00,0.00,28.8,27.0,00.0,37.6,30.6,20.3,0000.0,0006.07,0021.69,0003.20
2022-06-10 01:08:00,,0824.6,5.00,0.00,28.8,27.2,00.0,37.6,30.7,19.8,0000.0,0006.09,0022.10,0003.21
2022-06-10 01:09:00,,0824.7,4.99,0.00,28.8,27.4,00.0,37.6,30.7,20.2,0000.0,0006.09,0021.74,0003.20
2022-06-10 01:10:00,,0824.6,5.00,0.00,28.8,27.6,00.0,37.6,30.8,19.3,0000.0,0006.06,0021.48,0003.20
2022-06-10 01:11:00,,0824.6,5.00,0.00,28.9,27.8,00.0,37.7,30.9,19.4,0000.0,0006.07,0022.14,0003.20
2022-06-10 01:12:00,,0824.6,5.00,0.00,28.9,27.9,00.0,37.7,30.9,19.3,0000.0,0006.04,0022.24,0003.18
2022-06-10 01:13:00,,0824.6,5.00,0.00,29.0,28.1,00.0,37.7,31.0,19.3,0000.0,0006.03,0021.33,0003.18
2022-06-10 01:14:00,,0824.6,5.01,0.00,29.0,27.7,00.0,37.7,30.9,19.6,0000.0,0006.04,0021.03,0003.18
2022-06-10 01:15:00,,0824.7,5.00,0.00,28.9,26.9,00.0,37.6,30.7,19.3,0000.0,0006.14,0020.68,0003.17
2022-06-10 01:16:00,,0824.6,5.00,0.00,28.8,26.6,00.0,37.6,30.6,19.1,0000.0,0006.16,0020.32,0003.17
2022-06-10 01:17:00,,0824.6,5.00,0.00,28.8,26.7,00.0,37.6,30.5,19.2,0000.0,0006.14,0019.96,0003.16
2022-06-10 01:18:00,,0824.7,4.99,0.00,28.7,26.8,00.0,37.6,30.5,19.4,0000.0,0006.12,0020.91,0003.15
2022-06-10 01:19:00,,0824.8,4.99,0.00,28.7,27.0,00.0,37.6,30.5,19.4,0000.0,0006.10,0021.86,0003.15
2022-06-10 01:20:00,,0824.8,5.00,0.00,28.7,27.2,00.0,37.6,30.6,19.8,0000.0,0006.12,0022.09,0003.16
2022-06-10 01:21:00,,0824.9,5.00,0.00,28.8,27.4,00.0,37.6,30.7,19.8,0000.0,0006.14,0022.38,0003.16
2022-06-10 01:22:00,,0824.9,5.00,0.00,28.8,27.6,00.0,37.6,30.8,19.8,0000.0,0006.09,0021.32,0003.15
2022-06-10 01:23:00,,0824.9,4.99,0.00,28.8,27.7,00.0,37.6,30.8,19.9,0000.0,0006.06,0021.46,0003.15
2022-06-10 01:24:00,,0824.9,5.01,0.00,28.9,27.9,00.0,37.7,30.9,19.8,0000.0,0006.02,0021.28,0003.13
2022-06-10 01:25:00,,0824.9,4.99,0.00,28.9,28.0,00.0,37.7,30.9,19.7,0000.0,0005.99,0021.07,0003.13
2022-06-10 01:26:00,,0825.0,5.00,0.00,29.0,28.1,00.0,37.7,31.0,19.7,0000.0,0005.93,0021.78,0003.12
2022-06-10 01:27:00,,0825.0,5.00,0.00,29.0,27.6,00.0,37.7,30.9,19.8,0000.0,0005.92,0022.79,0003.12
2022-06-10 01:28:00,,0825.0,5.00,0.00,28.9,26.8,00.0,37.6,30.6,19.9,0000.0,0005.87,0023.59,0003.12
2022-06-10 01:29:00,,0825.0,5.00,0.00,28.8,26.6,00.0,37.6,30.6,19.7,0000.0,0005.86,0022.79,0003.12
2022-06-10 01:30:00,,0825.0,5.01,0.00,28.7,26.6,00.0,37.6,30.5,19.4,0000.0,0005.83,0022.18,0003.12
2022-06-10 01:31:00,,0825.0,4.99,0.00,28.7,26.8,00.0,37.6,30.5,19.9,0000.0,0005.76,0022.05,0003.11
2022-06-10 01:32:00,,0825.0,5.00,0.00,28.7,27.0,00.0,37.6,30.5,19.9,0000.0,0005.69,0022.45,0003.10
2022-06-10 01:33:00,,0825.0,5.00,0.00,28.7,27.2,00.0,37.6,30.6,19.7,0000.0,0005.67,0022.25,0003.08
2022-06-10 01:34:00,,0825.0,5.00,0.00,28.7,27.4,00.0,37.6,30.7,19.4,0000.0,0005.65,0021.76,0003.07
2022-06-10 01:35:00,,0825.0,4.99,0.00,28.8,27.6,00.0,37.6,30.7,19.7,0000.0,0005.64,0022.05,0003.08
2022-06-10 01:36:00,,0825.1,4.99,0.00,28.8,27.7,00.0,37.6,30.8,19.3,0000.0,0005.77,0022.12,0003.09
2022-06-10 01:37:00,,0825.1,4.99,0.00,28.9,27.9,00.0,37.6,30.9,19.5,0000.0,0005.81,0021.38,0003.11
2022-06-10 01:38:00,,0825.1,5.00,0.00,28.9,28.0,00.0,37.7,30.9,19.6,0000.0,0005.86,0021.37,0003.12
2022-06-10 01:39:00,,0825.1,5.00,0.00,29.0,28.2,00.0,37.7,31.0,19.6,0000.0,0005.87,0019.90,0003.11
2022-06-10 01:40:00,,0825.0,5.02,0.00,29.0,27.9,00.0,37.7,30.9,19.3,0000.0,0005.87,0019.48,0003.09
2022-06-10 01:41:00,,0825.1,5.00,0.00,28.9,27.0,00.0,37.6,30.7,19.4,0000.0,0005.89,0018.69,0003.10
2022-06-10 01:42:00,,0825.0,4.99,0.00,28.9,26.7,00.0,37.6,30.6,19.5,0000.0,0005.96,0019.39,0003.12
2022-06-10 01:43:00,,0825.1,5.00,0.00,28.8,26.6,00.0,37.6,30.5,19.5,0000.0,0006.10,0019.48,0003.14
2022-06-10 01:44:00,,0825.1,5.00,0.00,28.7,26.7,00.0,37.6,30.5,19.9,0000.0,0006.11,0019.49,0003.15
2022-06-10 01:45:00,,0825.1,5.00,0.00,28.7,26.9,00.0,37.6,30.5,20.0,0000.0,0006.07,0019.89,0003.16
2022-06-10 01:46:00,,0825.1,5.00,0.00,28.7,27.1,00.0,37.6,30.5,19.9,0000.0,0006.10,0019.62,0003.15
2022-06-10 01:47:00,,0825.1,5.01,0.00,28.7,27.3,00.0,37.6,30.6,20.1,0000.0,0006.06,0020.22,0003.15
2022-06-10 01:48:00,,0825.1,4.99,0.00,28.8,27.5,00.0,37.6,30.7,20.1,0000.0,0006.04,0020.11,0003.15
2022-06-10 01:49:00,,0825.1,5.01,0.00,28.8,27.7,00.0,37.6,30.8,19.0,0000.0,0006.00,0019.26,0003.15
2022-06-10 01:50:00,,0825.1,4.99,0.00,28.9,27.8,00.0,37.6,30.8,19.5,0000.0,0005.99,0020.24,0003.14
2022-06-10 01:51:00,,0825.1,4.99,0.00,28.9,28.0,00.0,37.7,30.9,19.5,0000.0,0006.01,0020.71,0003.15
2022-06-10 01:52:00,,0825.1,5.00,0.00,29.0,28.1,00.0,37.7,31.0,19.3,0000.0,0005.99,0020.33,0003.14
2022-06-10 01:53:00,,0825.1,5.00,0.00,29.0,28.2,00.0,37.7,31.0,19.1,0000.0,0005.95,0020.27,0003.15
2022-06-10 01:54:00,,0825.1,5.01,0.00,29.0,27.8,00.0,37.7,30.9,19.2,0000.0,0005.87,0019.25,0003.14
2022-06-10 01:55:00,,0825.1,5.00,0.00,28.9,26.9,00.0,37.6,30.7,19.5,0000.0,0005.83,0020.00,0003.15
2022-06-10 01:56:00,,0825.1,5.00,0.00,28.8,26.6,00.0,37.6,30.6,19.6,0000.0,0005.86,0020.20,0003.15
2022-06-10 01:57:00,,0825.1,5.01,0.00,28.8,26.6,00.0,37.6,30.5,19.7,0000.0,0005.87,0020.99,0003.16
2022-06-10 01:58:00,,0825.1,4.99,0.00,28.7,26.7,00.0,37.6,30.4,19.5,0000.0,0005.82,0020.24,0003.16
2022-06-10 01:59:00,,0825.1,5.02,0.00,28.7,26.9,00.0,37.6,30.5,19.6,0000.0,0005.81,0020.24,0003.16
